Location: Tamazert
(32.6352°N, 5.2072°W)
Time: 04:27:48
(UTC+00:00)

Vanguard 2 Rocket - Pass Details

Date: 04 October 2022
Orbit: 555 x 3321 km, 32.9° (Epoch: 05 December)

Event Time Altitude Azimuth Distance (km) Brightness Sun altitude
Rises 00:53:25 0° 267° (W) 6,253 - -59.9°
Reaches altitude 10° 00:58:13 10° 268° (W) 4,817 - -59.5°
Maximum altitude 01:10:35 88° 360° (N) 1,411 - -58.3°
Drops below altitude 10° 01:17:17 10° 89° (E) 2,732 - -57.5°
Sets 01:19:19 0° 90° (E) 3,456 - -57.3°
